Location: Unspecified
(60.1670°N, 0.0000°E)
Time: 09:59:05
(UTC+00:00)

SL-08 RB Rocket - Visible Passes

Search period start: 04 April 2026 00:00
Search period end: 14 April 2026 00:00
Orbit: 631 x 666 km, 97.8° (Epoch: 29 March)

Date Brightness Start Highest point End Pass type
(mag) Time Alt. Az. Time Alt. Az. Time Alt. Az.
4 Apr 5.9 03:15:40 10° NE 03:19:17 24° E 03:22:53 10° SE visible
5 Apr 5.1 03:41:34 10° NNE 03:45:41 37° E 03:49:46 10° SSE visible
6 Apr 6.5 02:32:38 10° ENE 02:34:17 12° E 02:35:55 10° ESE visible
6 Apr 4.3 04:07:37 10° NNE 04:12:00 57° ESE 04:16:19 10° S visible
7 Apr 6.3 02:57:46 10° NE 03:00:50 18° E 03:03:53 10° SE visible
8 Apr 5.7 03:23:29 10° NNE 03:27:17 27° E 03:31:03 10° SSE visible
9 Apr 4.9 03:49:25 10° NNE 03:53:39 42° E 03:57:50 10° S visible
10 Apr 6.4 02:40:05 10° NE 02:42:19 14° E 02:44:32 10° ESE visible
11 Apr 6.1 03:05:29 10° NE 03:08:50 21° E 03:12:09 10° SE visible
12 Apr 5.5 03:31:17 10° NNE 03:35:14 31° E 03:39:11 10° SSE visible
13 Apr 4.7 03:57:16 10° NNE 04:01:34 48° E 04:05:50 10° S visible
